Time,TemperatureF,DewpointF,PressureIn,WindDirection,WindDirectionDegrees,WindSpeedMPH,WindSpeedGustMPH,Humidity,HourlyPrecipIn,Conditions,Clouds,dailyrainin,SoftwareType,DateUTC
2013-07-07 00:50:00,64.8,55.2,29.57,East,90,4.2,-999.0,71,-99.99,,,0.00,Acu-Link.com,2013-07-07 07:50:00,
2013-07-07 01:05:00,64.6,55.4,29.58,East,90,0.0,-999.0,72,-99.99,,,0.00,Acu-Link.com,2013-07-07 08:05:00,
2013-07-07 01:22:00,64.2,55.0,29.57,East,90,2.2,-999.0,72,-99.99,,,0.00,Acu-Link.com,2013-07-07 08:22:00,
2013-07-07 01:37:00,64.2,55.4,29.58,WNW,292,0.0,-999.0,73,-99.99,,,0.00,Acu-Link.com,2013-07-07 08:37:00,
2013-07-07 04:24:00,61.0,57.4,29.58,South,180,4.2,-999.0,88,-99.99,,,0.00,Acu-Link.com,2013-07-07 11:24:00,
2013-07-07 04:39:00,60.6,56.7,29.59,SE,135,3.2,-999.0,87,-99.99,,,0.00,Acu-Link.com,2013-07-07 11:39:00,
2013-07-07 04:54:00,60.8,57.2,29.60,ESE,112,1.7,-999.0,88,-99.99,,,0.00,Acu-Link.com,2013-07-07 11:54:00,
2013-07-07 05:12:00,60.8,57.2,29.60,NE,45,4.7,-999.0,88,-99.99,,,0.00,Acu-Link.com,2013-07-07 12:12:00,
2013-07-07 05:39:00,59.7,57.7,29.61,South,180,0.0,-999.0,93,-99.99,,,0.00,Acu-Link.com,2013-07-07 12:39:00,
2013-07-07 06:20:00,59.7,57.7,29.62,ESE,112,0.0,-999.0,93,-99.99,,,0.00,Acu-Link.com,2013-07-07 13:20:00,
2013-07-07 06:35:00,60.3,57.7,29.62,East,90,1.7,-999.0,91,-99.99,,,0.00,Acu-Link.com,2013-07-07 13:35:00,
2013-07-07 06:52:00,62.2,58.6,29.62,West,270,0.0,-999.0,88,-99.99,,,0.00,Acu-Link.com,2013-07-07 13:52:00,
2013-07-07 07:11:00,62.2,58.6,29.63,SSW,202,4.2,-999.0,88,-99.99,,,0.00,Acu-Link.com,2013-07-07 14:11:00,
2013-07-07 07:31:00,61.2,58.5,29.63,South,180,0.0,-999.0,91,-99.99,,,0.00,Acu-Link.com,2013-07-07 14:31:00,
2013-07-07 07:46:00,61.0,58.7,29.63,South,180,0.0,-999.0,92,-99.99,,,0.00,Acu-Link.com,2013-07-07 14:46:00,
2013-07-07 08:01:00,61.0,58.7,29.63,South,180,3.2,-999.0,92,-99.99,,,0.00,Acu-Link.com,2013-07-07 15:01:00,
2013-07-07 08:20:00,61.0,58.4,29.63,SSW,202,1.1,-999.0,91,-99.99,,,0.00,Acu-Link.com,2013-07-07 15:20:00,
2013-07-07 08:36:00,61.3,58.6,29.64,SSE,157,2.7,-999.0,91,-99.99,,,0.00,Acu-Link.com,2013-07-07 15:36:00,
2013-07-07 08:51:00,60.1,58.1,29.64,South,180,1.1,-999.0,93,-99.99,,,0.00,Acu-Link.com,2013-07-07 15:51:00,
2013-07-07 09:07:00,59.7,58.3,29.63,SW,225,5.3,-999.0,95,-99.99,,,0.00,Acu-Link.com,2013-07-07 16:07:00,
2013-07-07 09:22:00,61.2,58.9,29.64,SW,225,4.7,-999.0,92,-99.99,,,0.00,Acu-Link.com,2013-07-07 16:22:00,
2013-07-07 09:38:00,60.8,58.5,29.64,South,180,7.8,-999.0,92,-99.99,,,0.00,Acu-Link.com,2013-07-07 16:38:00,
2013-07-07 09:53:00,60.6,58.6,29.64,South,180,4.7,-999.0,93,-99.99,,,0.00,Acu-Link.com,2013-07-07 16:53:00,
2013-07-07 10:09:00,60.4,58.1,29.64,SSW,202,6.3,-999.0,92,-99.99,,,0.00,Acu-Link.com,2013-07-07 17:09:00,
2013-07-07 10:24:00,60.8,58.8,29.64,SSW,202,5.3,-999.0,93,-99.99,,,0.00,Acu-Link.com,2013-07-07 17:24:00,
2013-07-07 10:40:00,61.3,58.6,29.64,SSW,202,6.3,-999.0,91,-99.99,,,0.00,Acu-Link.com,2013-07-07 17:40:00,
2013-07-07 10:56:00,61.2,58.9,29.65,South,180,2.7,-999.0,92,-99.99,,,0.00,Acu-Link.com,2013-07-07 17:56:00,
2013-07-07 11:11:00,62.6,59.0,29.65,SSE,157,5.3,-999.0,88,-99.99,,,0.00,Acu-Link.com,2013-07-07 18:11:00,
2013-07-07 11:27:00,62.4,58.8,29.65,SSW,202,3.2,-999.0,88,-99.99,,,0.00,Acu-Link.com,2013-07-07 18:27:00,
2013-07-07 15:08:00,72.7,60.2,29.61,SW,225,1.7,-999.0,65,-99.99,,,0.00,Acu-Link.com,2013-07-07 22:08:00,
2013-07-07 15:23:00,73.4,60.5,29.60,South,180,3.7,-999.0,64,-99.99,,,0.00,Acu-Link.com,2013-07-07 22:23:00,
2013-07-07 15:38:00,74.1,60.7,29.59,SSW,202,1.1,-999.0,63,-99.99,,,0.00,Acu-Link.com,2013-07-07 22:38:00,
2013-07-07 15:53:00,74.1,60.2,29.59,South,180,0.0,-999.0,62,-99.99,,,0.00,Acu-Link.com,2013-07-07 22:53:00,
2013-07-07 16:08:00,75.4,60.5,29.59,SW,225,4.7,-999.0,60,-99.99,,,0.00,Acu-Link.com,2013-07-07 23:08:00,
2013-07-07 16:23:00,74.7,60.8,29.58,SSW,202,4.7,-999.0,62,-99.99,,,0.00,Acu-Link.com,2013-07-07 23:23:00,
2013-07-07 16:39:00,77.2,61.7,29.58,South,180,2.2,-999.0,59,-99.99,,,0.00,Acu-Link.com,2013-07-07 23:39:00,
2013-07-07 16:54:00,77.0,61.6,29.57,South,180,2.7,-999.0,59,-99.99,,,0.00,Acu-Link.com,2013-07-07 23:54:00,
2013-07-07 17:10:00,76.5,60.1,29.56,South,180,5.3,-999.0,57,-99.99,,,0.00,Acu-Link.com,2013-07-08 00:10:00,
2013-07-07 17:26:00,77.2,61.3,29.56,South,180,6.8,-999.0,58,-99.99,,,0.00,Acu-Link.com,2013-07-08 00:26:00,
2013-07-07 17:48:00,76.5,60.1,29.56,South,180,6.8,-999.0,57,-99.99,,,0.00,Acu-Link.com,2013-07-08 00:48:00,
2013-07-07 18:09:00,76.5,60.1,29.55,South,180,3.2,-999.0,57,-99.99,,,0.00,Acu-Link.com,2013-07-08 01:09:00,
2013-07-07 18:37:00,77.4,61.4,29.55,South,180,3.7,-999.0,58,-99.99,,,0.00,Acu-Link.com,2013-07-08 01:37:00,
2013-07-07 18:52:00,78.6,62.1,29.56,South,180,3.7,-999.0,57,-99.99,,,0.00,Acu-Link.com,2013-07-08 01:52:00,
2013-07-07 19:15:00,78.8,62.8,29.56,South,180,2.2,-999.0,58,-99.99,,,0.00,Acu-Link.com,2013-07-08 02:15:00,
2013-07-07 19:50:00,76.5,62.5,29.57,SSE,157,6.8,-999.0,62,-99.99,,,0.00,Acu-Link.com,2013-07-08 02:50:00,
2013-07-07 20:06:00,75.4,62.8,29.57,SSW,202,0.0,-999.0,65,-99.99,,,0.00,Acu-Link.com,2013-07-08 03:06:00,
2013-07-07 20:21:00,75.4,62.4,29.58,SSW,202,2.7,-999.0,64,-99.99,,,0.00,Acu-Link.com,2013-07-08 03:21:00,
2013-07-07 20:36:00,73.2,62.4,29.58,SW,225,0.0,-999.0,69,-99.99,,,0.00,Acu-Link.com,2013-07-08 03:36:00,
2013-07-07 20:51:00,73.0,62.6,29.58,West,270,2.2,-999.0,70,-99.99,,,0.00,Acu-Link.com,2013-07-08 03:51:00,
2013-07-07 21:07:00,72.5,62.5,29.60,South,180,1.1,-999.0,71,-99.99,,,0.00,Acu-Link.com,2013-07-08 04:07:00,
2013-07-07 21:34:00,71.6,62.1,29.59,SSW,202,0.0,-999.0,72,-99.99,,,0.00,Acu-Link.com,2013-07-08 04:34:00,